Weather reports worldwide

Advertisment
Hereford/Credenhill, United Kingdom (3522): temperature & dewpoint: 17.10.2017 03:00:00 - 23.10.2017 03:00:00 (BST)Hereford/Credenhill, United Kingdom (3522): temperature -20cm & temperature -100cm: 17.10.2017 03:00:00 - 23.10.2017 03:00:00 (BST)Hereford/Credenhill, United Kingdom (3522): wind speed & gusts: 17.10.2017 03:00:00 - 23.10.2017 03:00:00 (BST)Hereford/Credenhill, United Kingdom (3522): wind direction: 17.10.2017 03:00:00 - 23.10.2017 03:00:00 (BST)Hereford/Credenhill, United Kingdom (3522): reduced air pressure: 17.10.2017 03:00:00 - 23.10.2017 03:00:00 (BST)Hereford/Credenhill, United Kingdom (3522): visibility: 17.10.2017 03:00:00 - 23.10.2017 03:00:00 (BST)Hereford/Credenhill, United Kingdom (3522): precipitation: 17.10.2017 03:00:00 - 23.10.2017 03:00:00 (BST)
Date & Time tt [°C] td [°C] tt -20cm [°C] tt -100cm [°C] ff [km/h] ff [kn] fx [km/h] fx [kn] dd ppp [hPa] vv [km] rr [mm]
23.10.2017 03:00:00 10,7 9,1 - - 4 2 - - SW 1017,7 25 -
23.10.2017 02:00:00 10,4 8,2 - - 4 2 - - SW 1017,9 30 0,0
23.10.2017 01:00:00 10,6 8,4 - - 2 1 - - SSW 1018,1 28 0,0
23.10.2017 00:00:00 10,9 8,3 - - 5 3 - - WSW 1018,2 26 0,0
22.10.2017 23:00:00 11,2 8,0 - - 15 8 - - W 1018,4 30 0,0
22.10.2017 22:00:00 11,3 7,5 - - 11 6 - - W 1018,5 35 0,0
22.10.2017 21:00:00 11,2 7,8 - - 16 9 - - W 1018,0 35 -
22.10.2017 20:00:00 10,6 7,8 - - 8 4 - - WSW 1018,0 35 0,0
22.10.2017 19:00:00 10,3 7,4 - - 4 2 - - SSW 1017,3 35 0,0
22.10.2017 18:00:00 11,2 6,9 - - 15 8 - - W 1016,6 45 0,0
22.10.2017 17:00:00 12,0 7,5 - - 18 10 - - W 1016,2 35 0,0
22.10.2017 16:00:00 12,9 7,7 - - 22 12 - - W 1015,7 40 0,0
22.10.2017 15:00:00 12,2 7,5 - - 21 11 46 25 W 1015,4 30 0,0
22.10.2017 14:00:00 12,6 7,7 - - 16 9 57 31 WSW 1015,0 45 0,0
22.10.2017 13:00:00 12,5 6,4 - - 24 13 - - W 1014,3 30 0,0
22.10.2017 12:00:00 11,6 4,8 - - 28 15 55 30 W 1013,9 30 0,0
22.10.2017 11:00:00 10,7 4,6 - - 28 15 50 27 W 1013,2 30 0,0
22.10.2017 10:00:00 9,8 3,9 12,7 13,4 21 11 48 26 W 1013,1 25 0,0
22.10.2017 09:00:00 9,7 4,2 - - 28 15 54 29 W 1012,1 25 0,0
22.10.2017 08:00:00 9,6 5,1 - - 22 12 - - W 1011,4 26 0,0
22.10.2017 07:00:00 9,2 5,8 - - 18 10 - - WSW 1011,1 19 0,0
22.10.2017 06:00:00 8,8 6,2 - - 15 8 - - WSW 1010,5 18 0,2
22.10.2017 05:00:00 9,1 6,1 - - 16 9 - - W 1009,4 19 0,2
22.10.2017 04:00:00 8,9 6,5 - - 21 11 52 28 W 1008,6 12 -
22.10.2017 03:00:00 9,5 6,0 - - 26 14 50 27 W 1007,4 26 0,0
22.10.2017 02:00:00 9,9 6,2 - - 24 13 52 28 W 1006,3 27 0,0
22.10.2017 01:00:00 10,4 6,7 - - 26 14 50 27 W 1005,6 30 0,0
22.10.2017 00:00:00 11,0 8,0 - - 26 14 57 31 W 1004,6 45 0,0
21.10.2017 23:00:00 11,2 8,7 - - 28 15 46 25 W 1002,9 45 0,0
21.10.2017 22:00:00 11,3 8,9 - - 28 15 50 27 W 1001,8 40 0,0
21.10.2017 21:00:00 11,3 9,2 - - 21 11 - - WSW 1000,8 40 0,0
21.10.2017 20:00:00 11,2 9,5 - - 13 7 - - WSW 999,8 35 1,2
21.10.2017 19:00:00 11,7 10,7 - - 18 10 - - WSW 998,4 3,7 1,8
21.10.2017 18:00:00 12,8 9,4 - - 18 10 - - WSW 996,9 35 0,2
21.10.2017 17:00:00 12,2 10,1 - - 9 5 - - SW 996,6 40 0,0
21.10.2017 16:00:00 12,0 9,7 - - 16 9 - - SW 995,8 7 0,2
21.10.2017 15:00:00 12,3 9,9 - - 15 8 48 26 SW 995,2 16 0,2
21.10.2017 14:00:00 12,3 9,8 - - 21 11 50 27 SW 995,0 24 0,6
21.10.2017 13:00:00 12,1 9,9 - - 15 8 - - SSW 995,2 20 0,4
21.10.2017 12:00:00 11,9 9,8 - - 13 7 - - SSW 995,5 7 0,0
21.10.2017 11:00:00 11,5 10,4 - - 9 5 - - SSW 995,9 20 1,0
21.10.2017 10:00:00 11,2 10,0 13,0 13,5 9 5 - - SW 995,7 8 1,6
21.10.2017 09:00:00 11,3 9,3 - - 8 4 - - S 995,6 4,6 0,6
21.10.2017 08:00:00 11,2 9,0 - - 9 5 - - S 996,0 19 0,0
21.10.2017 07:00:00 11,2 9,2 - - 5 3 - - S 996,6 12 -
21.10.2017 06:00:00 11,7 9,1 - - 8 4 - - S 996,7 17 -
21.10.2017 05:00:00 11,7 9,5 - - 5 3 - - W 996,9 20 -
21.10.2017 04:00:00 12,4 11,1 - - 5 3 - - SW 997,5 21 -
21.10.2017 03:00:00 12,1 11,1 - - 8 4 - - S 998,2 19 -
21.10.2017 02:00:00 12,4 11,8 - - 5 3 - - SSW 998,6 20 -
21.10.2017 01:00:00 12,1 11,4 - - 2 1 - - SW 999,0 20 -
21.10.2017 00:00:00 12,8 12,5 - - 11 6 - - SE 999,3 2,7 -
20.10.2017 23:00:00 12,2 11,7 - - 11 6 - - SE 1000,3 4,2 -
20.10.2017 22:00:00 12,0 11,1 - - 13 7 - - SE 1001,7 3,1 -
20.10.2017 21:00:00 12,0 10,1 - - 8 4 - - SE 1003,0 15 0,2
20.10.2017 20:00:00 12,3 8,9 - - 9 5 - - SE 1004,1 24 0,0
20.10.2017 19:00:00 11,7 7,6 - - 8 4 - - SE 1005,4 30 0,0
20.10.2017 18:00:00 11,8 7,0 - - 9 5 - - SSE 1006,1 28 0,0
20.10.2017 17:00:00 12,1 6,7 - - 4 2 - - S 1007,0 30 0,0
20.10.2017 16:00:00 12,9 6,1 - - 8 4 - - SW 1007,1 29 0,0
20.10.2017 15:00:00 13,8 5,9 - - 9 5 - - SW 1006,9 30 0,0
20.10.2017 14:00:00 14,1 6,8 - - 11 6 - - WSW 1006,9 40 0,0
20.10.2017 13:00:00 13,6 8,7 - - 16 9 - - WSW 1006,6 35 0,0
20.10.2017 12:00:00 12,5 9,1 - - 15 8 - - WSW 1006,6 40 0,0
20.10.2017 11:00:00 12,4 8,9 - - 18 10 - - W 1005,8 40 0,0
20.10.2017 10:00:00 12,3 9,5 13,0 13,5 15 8 - - WSW 1004,7 40 0,0
20.10.2017 09:00:00 11,7 9,2 - - 28 15 48 26 W 1002,5 60 0,0
20.10.2017 08:00:00 11,8 9,4 - - 22 12 - - W 1000,9 45 0,0
20.10.2017 07:00:00 12,4 10,3 - - 15 8 - - WSW 999,4 65 0,0
20.10.2017 06:00:00 11,3 10,4 - - 9 5 - - WSW 998,4 45 0,0
20.10.2017 05:00:00 11,4 10,6 - - 18 10 - - W 997,0 60 0,0
20.10.2017 04:00:00 11,4 11,2 - - 8 4 - - W 995,1 7 0,0
20.10.2017 03:00:00 11,5 11,2 - - 4 2 - - NNE 993,5 30 0,2
20.10.2017 02:00:00 11,5 11,1 - - 5 3 - - SE 993,1 7 0,0
20.10.2017 01:00:00 11,4 10,9 - - 9 5 - - SE 993,1 6 0,2
20.10.2017 00:00:00 12,2 10,3 - - 11 6 - - SE 993,4 9 0,0
19.10.2017 23:00:00 12,9 10,4 - - 13 7 - - SSE 993,9 30 0,0
19.10.2017 22:00:00 13,4 12,2 - - 11 6 - - SE 994,1 28 0,0
19.10.2017 21:00:00 13,3 12,2 - - 16 9 - - SE 994,4 30 0,8
19.10.2017 20:00:00 12,9 12,3 - - 13 7 - - SE 995,5 3,4 0,6
19.10.2017 19:00:00 13,2 11,2 - - 11 6 - - SE 996,5 30 0,0
19.10.2017 18:00:00 13,3 12,3 - - 9 5 - - SE 997,1 19 0,2
19.10.2017 17:00:00 13,8 13,3 - - 8 4 - - SE 997,9 12 0,0
19.10.2017 16:00:00 12,9 12,7 - - 4 2 - - ESE 998,6 17 0,0
19.10.2017 15:00:00 12,3 12,2 - - 5 3 - - ENE 999,2 13 2,8
19.10.2017 14:00:00 12,0 11,9 - - 4 2 - - W 1000,3 1,2 5,4
19.10.2017 13:00:00 11,7 11,6 - - 4 2 - - W 1001,5 0,8 6,2
19.10.2017 12:00:00 11,7 11,4 - - 5 3 - - ENE 1002,7 1,4 4,0
19.10.2017 11:00:00 11,7 11,3 - - 8 4 - - E 1003,9 3,4 0,0
19.10.2017 10:00:00 11,6 11,2 13,2 13,5 9 5 - - ESE 1004,7 3,9 0,0
19.10.2017 09:00:00 11,2 11,0 - - 5 3 - - E 1005,1 4,0 0,0
19.10.2017 08:00:00 11,0 10,8 - - 5 3 - - ESE 1005,5 3,8 0,0
19.10.2017 07:00:00 11,0 10,8 - - 5 3 - - E 1005,8 3,3 0,0
19.10.2017 06:00:00 11,1 11,0 - - 5 3 - - E 1006,6 2,7 0,0
19.10.2017 05:00:00 10,9 10,8 - - 5 3 - - E 1007,0 2,2 0,0
19.10.2017 04:00:00 10,8 10,8 - - 5 3 - - ENE 1008,1 1,7 0,0
19.10.2017 03:00:00 10,8 10,7 - - 4 2 - - ENE 1008,4 1,5 0,0
19.10.2017 02:00:00 10,6 10,5 - - 2 1 - - S 1009,0 2,8 0,0
19.10.2017 01:00:00 10,4 10,3 - - 4 2 - - S 1009,2 3,6 0,0
19.10.2017 00:00:00 10,4 10,4 - - 2 1 - - SSE 1009,6 4,1 0,0
18.10.2017 23:00:00 10,2 10,2 - - 4 2 - - ESE 1009,5 2,0 0,0
18.10.2017 22:00:00 10,0 9,8 - - 5 3 - - E 1009,8 2,2 0,0
18.10.2017 21:00:00 10,8 10,6 - - 2 1 - - S 1010,6 2,9 0,0
18.10.2017 20:00:00 10,7 10,5 - - 2 1 - - ESE 1010,6 1,9 0,0
18.10.2017 19:00:00 10,8 10,4 - - 0 0 - - N 1010,5 1,7 0,0
18.10.2017 18:00:00 10,8 10,4 - - 4 2 - - NNE 1010,3 2,9 0,0
18.10.2017 17:00:00 11,0 10,0 - - 5 3 - - ENE 1010,7 5 0,0
18.10.2017 16:00:00 11,1 9,9 - - 5 3 - - ENE 1010,9 9 0,0
18.10.2017 15:00:00 11,0 9,9 - - 9 5 - - ENE 1011,1 10 0,0
18.10.2017 14:00:00 10,8 9,9 - - 9 5 - - ENE 1011,4 7 0,0
18.10.2017 13:00:00 10,8 9,6 - - 8 4 - - E 1012,3 10 0,0
18.10.2017 12:00:00 10,5 9,3 - - 8 4 - - E 1012,8 12 0,2
18.10.2017 11:00:00 10,2 8,7 - - 11 6 - - ENE 1013,0 16 0,0
18.10.2017 10:00:00 10,0 8,4 13,4 13,7 8 4 - - ENE 1013,4 20 0,0
18.10.2017 09:00:00 9,8 8,2 - - 8 4 - - ENE 1013,5 26 0,0
18.10.2017 08:00:00 9,6 8,0 - - 8 4 - - NE 1013,4 23 0,0
18.10.2017 07:00:00 9,5 7,8 - - 5 3 - - NNE 1013,4 22 0,0
18.10.2017 06:00:00 9,2 7,8 - - 4 2 - - E 1014,0 20 0,0
18.10.2017 05:00:00 8,3 8,1 - - 0 0 - - N 1014,2 20 0,0
18.10.2017 04:00:00 7,7 7,3 - - 0 0 - - N 1014,7 16 0,0
18.10.2017 03:00:00 8,3 6,8 - - 2 1 - - NE 1015,1 19 0,0
18.10.2017 02:00:00 10,1 7,9 - - 5 3 - - NE 1015,6 24 0,0
18.10.2017 01:00:00 9,4 8,3 - - 2 1 - - E 1016,5 19 0,0
18.10.2017 00:00:00 9,6 9,0 - - 2 1 - - ENE 1017,1 8 0,0
17.10.2017 23:00:00 9,7 8,4 - - 2 1 - - NNW 1017,5 8 0,4
17.10.2017 22:00:00 10,3 8,4 - - 4 2 - - S 1017,1 12 0,0
17.10.2017 21:00:00 10,7 7,2 - - 4 2 - - S 1017,1 28 0,0
17.10.2017 20:00:00 10,2 7,1 - - 2 1 - - ESE 1016,8 26 0,0
17.10.2017 19:00:00 10,9 6,8 - - 2 1 - - WSW 1017,1 22 0,0
17.10.2017 18:00:00 12,6 6,2 - - 4 2 - - W 1017,1 12 0,0
17.10.2017 17:00:00 13,9 5,8 - - 9 5 - - W 1017,1 28 0,0
17.10.2017 16:00:00 15,0 5,6 - - 15 8 - - W 1017,8 28 0,0
17.10.2017 15:00:00 16,0 6,0 - - 16 9 - - W 1018,2 29 0,0
17.10.2017 14:00:00 17,3 6,9 - - 13 7 - - W 1018,7 29 0,0
17.10.2017 13:00:00 15,5 5,5 - - 21 11 - - W 1018,9 30 0,0
17.10.2017 12:00:00 15,5 5,6 - - 18 10 - - W 1019,0 30 0,0
17.10.2017 11:00:00 14,8 6,5 - - 15 8 - - WSW 1019,0 27 0,0
17.10.2017 10:00:00 13,2 7,1 13,7 13,7 16 9 - - WSW 1018,9 22 0,0
17.10.2017 09:00:00 12,3 7,3 - - 11 6 - - WSW 1018,5 22 0,0
17.10.2017 08:00:00 11,2 5,8 - - 9 5 - - WSW 1017,9 21 0,0
17.10.2017 07:00:00 11,9 6,2 - - 16 9 - - WSW 1017,0 22 0,0
17.10.2017 06:00:00 12,2 6,1 - - 18 10 - - WSW 1016,8 22 0,0
17.10.2017 05:00:00 12,7 6,2 - - 18 10 48 26 WSW 1016,3 21 0,0
17.10.2017 04:00:00 12,9 5,6 - - 21 11 54 29 WSW 1015,7 22 0,0
17.10.2017 03:00:00 13,2 5,8 - - 15 8 - - WSW 1015,9 25 0,0

tt = temperature
td = dewpoint
tt -20cm = temperature -20cm
tt -100cm = temperature -100cm
ff = wind speed
fx = gusts
dd = wind direction
ppp = reduced air pressure
vv = visibility
rr = precipitation

Next stations